Regional Weather Roundup
Issued by NWS

Home | Current Version | Previous Version | Text Only | Print | Product List | Glossary Off
Versions: 1 2 3 4 5 6 7 8 9 10 11 12 13 14 15 16 17 18 19 20 21 22 23 24 25 26 27 28 29 30 31 32 33 34 35 36 37 38 39 40 41 42 43 44 45 46 47 48 49 50

000
ASUS45 KPSR 042300
RWRAZ

ARIZONA REGIONAL HOURLY WEATHER ROUNDUP
NATIONAL WEATHER SERVICE PHOENIX AZ
400 PM MST MON MAY 04 2015

NOTE: FAIR INDICATES FEW OR NO CLOUDS BELOW 12,000 FEET WITH NO
SIGNIFICANT WEATHER AND/OR OBSTRUCTIONS TO VISIBILITY.

AZZ001>003-036-050000-
NORTHWEST ARIZONA

CITY           SKY/WX    TMP DP  RH WIND       PRES   REMARKS
BULLHEAD CITY  CLOUDY    82  46  28 E17G28    29.76F
KINGMAN        LGT RAIN  58  51  78 E6        29.93F
$$

AZZ004>008-015-016-018-050000-
NORTH CENTRAL ARIZONA

CITY           SKY/WX    TMP DP  RH WIND       PRES   REMARKS
GRAND CANYON   CLOUDY    51  41  68 N8        30.00F
WILLIAMS       CLOUDY    54  43  66 VRB7G15   30.07S
PRESCOTT       PTSUNNY   60  41  49 W14       29.95F
FLAGSTAFF      NOT AVBL
PAYSON         MOSUNNY   64  46  52 SW9       29.95F
PAGE           CLOUDY    69  41  36 CALM      29.87F
$$

AZZ009>014-017-050000-
NORTHEAST ARIZONA

CITY           SKY/WX    TMP DP  RH WIND       PRES   REMARKS
WINSLOW        NOT AVBL
SAINT JOHNS    PTSUNNY   59  45  59 W13       29.93F
WINDOW ROCK    PTSUNNY   54  45  71 N15       30.00F
$$

AZZ023-050000-
GREATER PHOENIX AREA

CITY           SKY/WX    TMP DP  RH WIND       PRES   REMARKS
PHOENIX        PTSUNNY   77  50  38 W12       29.77S THUNDER
GLENDALE       LGT RAIN  75  57  53 SW12G17   29.80F
DEER VALLEY    MOSUNNY   80  44  27 W14       29.77F
SCOTTSDALE     PTSUNNY   81  45  28 W10       29.78F
MESA-FALCON    PTSUNNY   81  48  32 MISG      29.77F
CHANDLER       PTSUNNY   81  43  26 W15       29.78F
$$

AZZ027-028-050000-
SOUTHWEST MARICOPA COUNTY AND PINAL COUNTY

CITY           SKY/WX    TMP DP  RH WIND       PRES   REMARKS
CASA GRANDE    CLOUDY    81  43  26 SW16G24   29.76F
GILA BEND      FAIR      73  57  56 E8        29.78F HAZE
$$

AZZ503-504-507>509-050000-
SOUTHEAST ARIZONA

CITY           SKY/WX    TMP DP  RH WIND       PRES   REMARKS
TUCSON         MOSUNNY   81  39  22 VRB5      29.82F
RYAN FIELD       N/A     84  39  20 SW22G30   29.81F
NOGALES        MOSUNNY   76  36  23 SW20      29.90F
SAFFORD        CLOUDY    72  50  45 W16       29.79F
$$

AZZ020-021-025-026-031-050000-
SOUTHWEST ARIZONA

CITY           SKY/WX    TMP DP  RH WIND       PRES   REMARKS
YUMA           PTSUNNY   86  52  30 SW13      29.76F
$$

CAZ031-033-041-043-047-048-061-050000-
SOUTHERN CALIFORNIA

CITY           SKY/WX    TMP DP  RH WIND       PRES   REMARKS
DOWNTOWN L.A.  SUNNY     65  51  60 W8        29.94F
L.A. AIRPORT   MOSUNNY   63  51  65 W18G25    29.95F
SAN DIEGO      PTSUNNY   67  51  56 NW14G21   29.97F
BURBANK        SUNNY     68  49  50 S12       29.91F
ONTARIO        MOSUNNY   73  48  41 SW16G22   29.90F
RIVERSIDE      SUNNY     73  48  41 W14       29.89F
PALM SPRINGS   MOSUNNY   87  44  22 VRB6      29.77F
EL CENTRO NAS  MOSUNNY   87  41  19 CALM      29.76F
IMPERIAL       SUNNY     87  47  24 VRB6      29.73F
BLYTHE         PTSUNNY   84  53  34 SE14      29.74F
$$

NVZ020-UTZ003-050000-
SOUTHERN NEVADA-UTAH

CITY           SKY/WX    TMP DP  RH WIND       PRES   REMARKS
LAS VEGAS      NOT AVBL
SALT LAKE CITY CLOUDY    68  41  37 SW5       29.87R
$$

NMZ009-TXZ055-050000-
NEW MEXICO-WEST TEXAS

CITY           SKY/WX    TMP DP  RH WIND       PRES   REMARKS
ALBUQUERQUE    PTSUNNY   71  40  32 N16       29.88F THUNDER
EL PASO        PTSUNNY   82  47  29 VRB3      29.77F
$$


........................KEY........................
SKY/WX - SKY CONDITION/WEATHER
TMP    - TEMPERATURE IN FAHRENHEIT
DP     - DEW POINT IN FAHRENHEIT
RH     - RELATIVE HUMIDITY IN PERCENT
WIND   - DIRECTION AND SPEED IN MILES PER HOUR (MPH)
VRB    - VARIABLE WIND DIRECTION
PRES   - MEAN SEA LEVEL PRESSURE IN INCHES OF MERCURY
         F - FALLING PRESSURE   R - RISING PRESSURE
         S - STEADY PRESSURE
VSB    - VISIBILITY IN MILES
HX     - HEAT INDEX IN FAHRENHEIT
WCI    - WIND CHILL INDEX IN FAHRENHEIT
TC     - TEMPERATURE IN CELSIUS WHICH IS ALSO KNOWN AS
         TEMPERATURE IN CENTIGRADE
AFB    - AIR FORCE BASE
         LUKE AFB IS LUKE AIR FORCE BASE
         DAVIS-MONTHAN IS DAVIS-MONTHAN AIR FORCE BASE
NAS    - NAVAL AIR STATION
         EL CENTRO NAS IS EL CENTRO NAVAL AIR STATION
N/A    - NOT AVAILABLE




USA.gov is the U.S. government's official web portal to all federal, state and local government web resources and services.